Weather History for Gwinn, MI

Change the Weather History Date:

Thursday, March 7, 2013

  Actual Average (KESC) Record (KESC)
Temperature  
Mean Temperature 16 °F -  
Max Temperature 24 °F 32 °F 45 °F (1987)
Min Temperature 9 °F 14 °F -14 °F (1989)
Degree Days  
Heating Degree Days 48    
Moisture  
Dew Point 14 °F    
Average Humidity 84    
Maximum Humidity 93    
Minimum Humidity 59    
Precipitation  
Precipitation 0.00 in - - ()
Sea Level Pressure  
Sea Level Pressure 30.32 in    
Wind  
Wind Speed 2 mph (NNW)    
Max Wind Speed 12 mph    
Max Gust Speed -    
Visibility 9 miles    
Events Snow    
Averages and records for this station are not official NWS values.
T = Trace of Precipitation, MM = Missing Value Source: NWS Daily Summary

Daily Weather History Graph

Daily Weather History Graph

Search for Another Location

Airport:

Trip Planner

Search our weather history database for the weather conditions in past years. The results will help you decide how hot, cold, wet, or windy it might be!

Date:

Astronomy

Mar. 07, 2013 Rise Set
Actual Time 7:17 AM EST 6:44 PM EST
Civil Twilight 6:47 AM EST 7:14 PM EST
Nautical Twilight 6:12 AM EST 7:49 PM EST
Astronomical Twilight 5:37 AM EST 8:24 PM EST
Moon 4:29 AM EST (3/7) 2:20 PM EST (3/7)
Length of Visible Light 12h 27m
Length of Day
11h 27m
Waning Crescent, 20% of the Moon is Illuminated
Mar 7
Waning Crescent
Mar 11
New
Mar 19
First Quarter
Mar 27
Full
Apr 3
Last Quarter

Hourly Weather History & Observations

Time (EST) Temp. Windchill Dew Point Humidity Pressure Visibility Wind Dir Wind Speed Gust Speed Precip Events Conditions
12:17 AM 17.4 °F - 14.0 °F 86% 30.26 in 10.0 mi Calm Calm - N/A   Clear
12:36 AM 13.3 °F - 10.9 °F 90% 30.26 in 10.0 mi Calm Calm - N/A   Clear
12:57 AM 12.9 °F - 11.1 °F 93% 30.25 in 10.0 mi Calm Calm - N/A   Clear
1:17 AM 10.9 °F - 8.4 °F 90% 30.26 in 7.0 mi Calm Calm - N/A   Clear
1:36 AM 9.7 °F 3.2 °F 6.8 °F 88% 30.26 in 10.0 mi WNW 3.5 mph - N/A   Scattered Clouds
1:57 AM 10.4 °F 4.0 °F 7.9 °F 90% 30.26 in 10.0 mi WNW 3.5 mph - N/A   Overcast
2:17 AM 11.8 °F - 9.3 °F 90% 30.26 in 10.0 mi Calm Calm - N/A   Overcast
2:36 AM 14.2 °F 8.4 °F 12.2 °F 92% 30.26 in 10.0 mi WNW 3.5 mph - N/A Snow Light Snow
2:57 AM 13.6 °F - 11.1 °F 90% 30.26 in 10.0 mi Calm Calm - N/A   Overcast
3:16 AM 14.9 °F 9.2 °F 12.6 °F 90% 30.26 in 10.0 mi West 3.5 mph - N/A Snow Light Snow
3:37 AM 15.4 °F 8.1 °F 13.1 °F 90% 30.26 in 5.0 mi West 4.6 mph - N/A Snow Light Snow
3:57 AM 15.8 °F - 13.1 °F 89% 30.26 in 7.0 mi Calm Calm - N/A Snow Light Snow
4:16 AM 15.8 °F - 13.1 °F 89% 30.26 in 10.0 mi Calm Calm - N/A   Overcast
4:37 AM 15.8 °F 8.6 °F 13.1 °F 89% 30.27 in 10.0 mi West 4.6 mph - N/A   Overcast
4:57 AM 16.3 °F 9.2 °F 13.6 °F 89% 30.28 in 10.0 mi West 4.6 mph - N/A   Overcast
5:16 AM 16.9 °F - 14.2 °F 89% 30.27 in 10.0 mi Calm Calm - N/A   Overcast
5:37 AM 16.7 °F - 14.0 °F 89% 30.27 in 10.0 mi Calm Calm - N/A   Overcast
5:56 AM 17.4 °F 12.1 °F 14.7 °F 89% 30.28 in 7.0 mi WNW 3.5 mph - N/A Snow Light Snow
6:50 AM 19.4 °F 10.4 °F 15.8 °F 86% 30.29 in 10.0 mi NW 6.9 mph - N/A Snow Light Snow
7:50 AM 19.4 °F 11.5 °F 15.8 °F 86% 30.32 in 5.0 mi NW 5.8 mph - N/A Snow Light Snow
8:05 AM 19.4 °F 11.5 °F 15.8 °F 86% 30.33 in 2.0 mi NW 5.8 mph - N/A Snow Light Snow
8:50 AM 19.4 °F 8.6 °F 15.8 °F 86% 30.33 in 7.0 mi North 9.2 mph - N/A Snow Light Snow
9:50 AM 21.2 °F 9.5 °F 12.2 °F 68% 30.34 in 10.0 mi NNW 11.5 mph - N/A   Overcast
10:50 AM 21.2 °F 13.6 °F 12.2 °F 68% 30.35 in 10.0 mi North 5.8 mph - N/A   Scattered Clouds
11:50 AM 23.0 °F 17.0 °F 12.2 °F 63% 30.34 in 10.0 mi North 4.6 mph - N/A   Overcast
12:50 PM 23.0 °F 13.1 °F 14.0 °F 68% 30.37 in 10.0 mi NW 9.2 mph - N/A Snow Light Snow
1:50 PM 24.8 °F - 12.2 °F 59% 30.36 in 10.0 mi Calm Calm - N/A   Scattered Clouds
2:55 PM 24.8 °F 17.9 °F 14.0 °F 64% 30.36 in 10.0 mi North 5.8 mph - N/A   Overcast
3:50 PM 24.8 °F 16.1 °F 17.6 °F 74% 30.37 in 10.0 mi NNE 8.1 mph - N/A   Overcast
4:50 PM 24.8 °F 19.1 °F 17.6 °F 74% 30.36 in 10.0 mi North 4.6 mph - N/A   Overcast
5:50 PM 24.8 °F - 17.6 °F 74% 30.37 in 10.0 mi Calm Calm - N/A   Mostly Cloudy
6:50 PM 24.8 °F 20.5 °F 19.4 °F 80% 30.38 in 10.0 mi ENE 3.5 mph - N/A   Mostly Cloudy
7:50 PM 24.8 °F 20.5 °F 19.4 °F 80% 30.39 in 10.0 mi NE 3.5 mph - N/A   Overcast
8:50 PM 24.8 °F 19.1 °F 19.4 °F 80% 30.39 in 10.0 mi ENE 4.6 mph - N/A   Overcast
9:45 PM 23.0 °F 18.4 °F 19.4 °F 86% 30.40 in 10.0 mi East 3.5 mph - N/A   Scattered Clouds
10:17 PM 21.6 °F - 17.6 °F 85% 30.39 in 10.0 mi Calm Calm - N/A   Clear
10:37 PM 18.7 °F - 16.2 °F 90% 30.39 in 10.0 mi Calm Calm - N/A   Clear
10:56 PM 16.2 °F - 14.2 °F 92% 30.39 in 10.0 mi Calm Calm - N/A   Mostly Cloudy
11:17 PM 18.1 °F - 16.5 °F 93% 30.39 in 10.0 mi Calm Calm - N/A   Overcast
11:37 PM 18.1 °F - 16.2 °F 92% 30.40 in 10.0 mi Calm Calm - N/A   Overcast
11:56 PM 18.5 °F - 16.5 °F 92% 30.40 in 10.0 mi Calm Calm - N/A   Overcast